Regional Weather Roundup
Issued by NWS State College, PA

Home | Current Version | Previous Version | Graphics & Text | Print | Product List | Glossary Off
Versions: 1 2 3 4 5 6 7 8 9 10 11 12 13 14 15 16 17 18 19 20 21 22 23 24 25 26 27 28 29 30 31 32 33 34 35 36 37 38 39 40 41 42 43 44 45 46 47 48 49 50

000
ASUS41 KCTP 220510
RWRCTP

REGIONAL WEATHER ROUNDUP
NATIONAL WEATHER SERVICE STATE COLLEGE PA
100 AM EDT SAT JUL 22 2017

Note: "fair" indicates few or no clouds below 12,000 feet with no
significant weather and/or obstructions to visibility.

* = STATION THAT DOES NOT REPORT PRECIPITATION /E.G. RAIN...SNOW...ETC/
    THUNDER OR FOG.

PAZ002>004-007>009-013>016-020>023-029>032-220600-
WESTERN PENNSYLVANIA

CITY           SKY/WX    TMP DP  RH WIND       PRES   REMARKS
ERIE           CLOUDY    70  65  84 S5        29.98R
MEADVILLE      PTCLDY    67  65  93 CALM      30.01R
FRANKLIN*      PTCLDY    66  61  82 CALM      30.02R
NEW CASTLE     FAIR      69  69 100 CALM      30.01S
BEAVER COUNTY  NOT AVBL
BUTLER*        CLOUDY    72  70  94 SW3       30.00F
PITTSBURGH INT CLOUDY    76  73  91 SW6       30.00S
PITTSBURGH     CLOUDY    74  70  87 S7        30.00R
INDIANA*       CLOUDY    73  73 100 W6        30.04R FOG
LATROBE        CLOUDY    73  73 100 SW6       30.02S
WASHINGTON CO* CLOUDY    73  70  88 CALM      30.02S
$$

PAZ004>006-010>012-017>019-024>028-033>037-041-042-045-046-049>053-220600-
CENTRAL PENNSYLVANIA

CITY           SKY/WX    TMP DP  RH WIND       PRES   REMARKS
BRADFORD       PTCLDY    60  60 100 CALM      30.03F FOG
DUBOIS         CLEAR     66  64  93 W3        30.03R FOG
CLEARFIELD     MOCLDY    70  68  93 SW6       30.01R
JOHNSTOWN      CLOUDY    71  69  93 SW9       30.05S FOG
ALTOONA        CLEAR     71  70  96 SW5       30.00R
STATE COLLEGE  CLEAR     74  66  76 CALM      29.98S
WILLIAMSPORT   CLOUDY    74  71  91 CALM      29.93R
SELINSGROVE    PTCLDY    73  73 100 CALM      29.93R FOG
FT INDIANTOWN  PTCLDY    72  72 100 CALM      29.91S
CAPITAL CITY   PTCLDY    80  72  76 VRB3      29.90F
HARRISBURG     PTCLDY    80  75  84 NW8       29.89F
YORK           CLEAR     73  72  96 CALM      29.91F
$$

PAZ038>040-043-044-047-048-054-055-060>062-067>071-220600-
EASTERN PENNSYLVANIA

CITY           SKY/WX    TMP DP  RH WIND       PRES   REMARKS
SCRANTON       MOCLDY    73  71  93 CALM      29.94R
MOUNT POCONO   PTCLDY    69  69 100 W3        29.99R
ALLENTOWN      CLOUDY    77  70  79 W5        29.89F
QUAKERTOWN*    CLOUDY    75  73  94 CALM      29.91F
READING        MOCLDY    78  75  90 CALM      29.89S
LANCASTER      CLEAR     78  75  90 CALM      29.90F
COATESVILLE    CLOUDY    77  72  83 CALM      29.93F
POTTSTOWN      PTCLDY    77  73  87 CALM      29.92S
BLUE BELL      CLOUDY    73  72  94 CALM      29.91F
DOYLESTOWN     CLOUDY    78  72  81 CALM      29.90S
WILLOW GROVE   NOT AVBL
NORTH PHILA    PTCLDY    85  72  65 CALM      29.90S
PHILADELPHIA   CLOUDY    82  73  74 CALM      29.89F
$$



USA.gov is the U.S. government's official web portal to all federal, state and local government web resources and services.